Cozumel Airport, Mexico

5:57 AM EST on February 09, 2016 (GMT -0500)
Cozumel International

Weather History for MMCZ - November, 2014

Change the Weather History Date:

Friday, November 7, 2014

  Actual Average Record
Temperature  
Mean Temperature 72 °F -  
Max Temperature 78 °F 84 °F 87 °F (1996)
Min Temperature 66 °F 74 °F 62 °F (2010)
Cooling Degree Days 7    
Growing Degree Days 22 (Base 50)    
Moisture  
Dew Point 69 °F    
Average Humidity 90    
Maximum Humidity 100    
Minimum Humidity 69    
Precipitation  
Precipitation 0.00 in - - ()
Sea Level Pressure  
Sea Level Pressure 29.98 in    
Wind  
Wind Speed 4 mph ()    
Max Wind Speed 9 mph    
Max Gust Speed -    
Visibility 7.4 miles    
Events      
Averages and records for this station are not official NWS values.
T = Trace of Precipitation, MM = Missing Value Source: Averaged Metar Reports

Daily Weather History Graph

Daily Weather History Graph

Search for Another Location

Airport or City:

Trip Planner

Search our weather history database for the weather conditions in past years. The results will help you decide how hot, cold, wet, or windy it might be!

Date:

Astronomy

Nov. 07, 2014 Rise Set
Actual Time 5:52 AM CST 5:09 PM CST
Civil Twilight 5:29 AM CST 5:32 PM CST
Nautical Twilight 5:03 AM CST 5:59 PM CST
Astronomical Twilight 4:37 AM CST 6:25 PM CST
Moon 6:04 PM CST (11/7) 6:27 AM CST (11/7)
Length of Visible Light 12h 02m
Length of Day
11h 16m
Full, 99% of the Moon is Illuminated
Nov 7
Full
Nov 14
Last Quarter
Nov 22
New
Nov 29
First Quarter
Dec 6
Full

Hourly Weather History & Observations

Time (CST) Temp. Dew Point Humidity Pressure Visibility Wind Dir Wind Speed Gust Speed Precip Events Conditions
12:42 AM 68.0 °F 68.0 °F 100% 29.99 in 7.0 mi Calm Calm - N/A   Scattered Clouds
1:48 AM 66.2 °F 66.2 °F 100% 29.98 in 7.0 mi Calm Calm - N/A   Scattered Clouds
2:45 AM 69.8 °F 69.8 °F 100% 29.99 in 7.0 mi West 6.9 mph - N/A   Clear
3:40 AM 71.6 °F 69.8 °F 94% 29.97 in 7.0 mi North 6.9 mph - N/A   Clear
4:44 AM 69.8 °F 69.8 °F 100% 29.98 in 7.0 mi North 8.1 mph - N/A   Clear
5:42 AM 69.8 °F 69.8 °F 100% 29.99 in 7.0 mi NNW 6.9 mph - N/A   Clear
6:44 AM 71.6 °F 69.8 °F 94% 30.01 in 7.0 mi NNW 9.2 mph - N/A   Scattered Clouds
7:40 AM 71.6 °F 71.6 °F 100% 30.02 in 8.0 mi NNW 9.2 mph - N/A   Scattered Clouds
8:40 AM 75.2 °F 71.6 °F 89% 30.06 in 8.0 mi NW 8.1 mph - N/A   Scattered Clouds
9:45 AM 77.0 °F 71.6 °F 83% 30.03 in 8.0 mi NNW 9.2 mph - N/A   Scattered Clouds
10:40 AM 78.8 °F 69.8 °F 74% 30.01 in 8.0 mi North 9.2 mph - N/A   Scattered Clouds
11:41 AM 78.8 °F 69.8 °F 74% 29.97 in 8.0 mi North 6.9 mph - N/A   Mostly Cloudy
12:45 PM 78.8 °F 69.8 °F 74% 29.95 in 8.0 mi NE 8.1 mph - N/A   Mostly Cloudy
1:42 PM 78.8 °F 69.8 °F 74% 29.94 in 8.0 mi East 6.9 mph - N/A   Scattered Clouds
2:48 PM 78.8 °F 68.0 °F 69% 29.96 in 8.0 mi NE 5.8 mph - N/A   Partly Cloudy
3:51 PM 77.0 °F 69.8 °F 78% 29.93 in 8.0 mi ENE 5.8 mph - N/A   Partly Cloudy
4:53 PM 75.2 °F 69.8 °F 83% 29.94 in 8.0 mi Calm Calm - N/A   Scattered Clouds
5:48 PM 73.4 °F 69.8 °F 88% 29.92 in 7.0 mi ENE 3.5 mph - N/A   Scattered Clouds
6:49 PM 71.6 °F 69.8 °F 94% 29.96 in 7.0 mi Calm Calm - N/A   Scattered Clouds
7:55 PM 71.6 °F 69.8 °F 94% 29.97 in 7.0 mi Calm Calm - N/A   Scattered Clouds
8:45 PM 68.0 °F 68.0 °F 100% 29.99 in 7.0 mi Calm Calm - N/A   Scattered Clouds
9:48 PM 68.0 °F 68.0 °F 100% 29.97 in 7.0 mi Calm Calm - N/A   Scattered Clouds
10:46 PM 66.2 °F 66.2 °F 100% 29.96 in 7.0 mi Calm Calm - N/A   Scattered Clouds
11:42 PM 66.2 °F 66.2 °F 100% 29.93 in 7.0 mi Calm Calm - N/A   Scattered Clouds